Starlink 5405

operational
NORAD ID: 54863 Int'l Des: 2022-177 Owner: SPXS Country: US Constellation: starlink
LEOCIRCULAR

Starlink 5405について

説明を読み込み中...

リアルタイム位置

3D地球を読み込み中...

次回通過

高度履歴

Altitude vs Time

uPlot chart will show altitude changes over time

軌道要素

1 54863U 22177AV 25308.76468425 -.00000411 00000-0 -15352-4 0 9993
2 54863 43.0037 79.1008 0001248 270.4101 89.6599 15.02534151158311
Epoch: Nov 4, 2025 • Age: 12 hours

現在のステータス

高度 561.7 km
速度 7.59 km/s
衛星直下点 36.77°N, 68.17°E
打ち上げ日 Dec 28, 2022
運用期間 2.8 years
タイプ internet

技術仕様

分類 Payload
質量 305.00 kg
乾燥質量 290.00 kg
総質量 305.00 kg
長さ 0.20 m
直径 2.80 m
スパン 9.00 m
形状 Box + pan
製造者 SPXS
バスタイプ Starlink
フェーズステータス In Orbit
所有者/国 SPXS/US

大規模コンステレーション

Loading constellations...